TimeCST,TemperatureF,Dew PointF,Humidity,Sea Level PressureIn,VisibilityMPH,Wind Direction,Wind SpeedMPH,Gust SpeedMPH,PrecipitationIn,Events,Conditions,WindDirDegrees,DateUTC
12:53 AM,19.9,14.0,78,30.05,9.0,NNW,8.1,-,N/A,,Overcast,340,2012-12-20 06:53:00
1:53 AM,19.9,14.0,78,30.05,9.0,NNW,8.1,-,N/A,,Overcast,340,2012-12-20 07:53:00
2:53 AM,19.9,15.1,81,30.05,8.0,NNW,8.1,-,N/A,,Overcast,340,2012-12-20 08:53:00
3:53 AM,19.9,15.1,81,30.03,8.0,North,9.2,-,N/A,,Overcast,350,2012-12-20 09:53:00
4:53 AM,19.0,15.1,85,30.02,7.0,North,8.1,-,N/A,,Overcast,350,2012-12-20 10:53:00
5:03 AM,19.4,15.8,86,29.94,7.0,North,10.4,-,N/A,,Overcast,350,2012-12-20 11:03:00
5:53 AM,19.9,16.0,85,30.01,7.0,North,10.4,-,N/A,,Overcast,350,2012-12-20 11:53:00
6:53 AM,21.0,17.1,85,30.01,6.0,North,9.2,-,N/A,,Overcast,350,2012-12-20 12:53:00
7:53 AM,21.9,17.1,82,30.01,8.0,North,13.8,23.0,N/A,,Overcast,350,2012-12-20 13:53:00
8:12 AM,21.2,17.6,86,29.94,7.0,North,13.8,23.0,N/A,,Overcast,350,2012-12-20 14:12:00
8:34 AM,21.2,17.6,86,29.95,7.0,NNW,15.0,21.9,N/A,,Overcast,340,2012-12-20 14:34:00
8:53 AM,21.9,18.0,85,30.03,8.0,North,13.8,23.0,N/A,,Overcast,350,2012-12-20 14:53:00
9:53 AM,21.9,17.1,82,30.03,10.0,North,15.0,24.2,N/A,,Overcast,350,2012-12-20 15:53:00
10:29 AM,21.2,17.6,86,29.95,10.0,North,17.3,24.2,N/A,,Overcast,350,2012-12-20 16:29:00
10:53 AM,23.0,17.1,78,30.02,10.0,NNW,16.1,24.2,N/A,,Overcast,340,2012-12-20 16:53:00
11:24 AM,23.0,15.8,74,29.93,10.0,NNW,18.4,25.3,N/A,,Mostly Cloudy,340,2012-12-20 17:24:00
11:53 AM,21.9,15.1,75,29.99,10.0,NNW,15.0,27.6,N/A,,Partly Cloudy,340,2012-12-20 17:53:00
12:53 PM,23.0,14.0,68,29.99,10.0,NNW,18.4,28.8,N/A,,Clear,330,2012-12-20 18:53:00
1:53 PM,21.9,14.0,72,29.99,10.0,NW,17.3,26.5,N/A,,Clear,320,2012-12-20 19:53:00
2:53 PM,21.9,14.0,72,30.01,10.0,NW,17.3,21.9,N/A,,Clear,320,2012-12-20 20:53:00
3:53 PM,19.0,12.0,74,30.02,10.0,NNW,13.8,-,N/A,,Partly Cloudy,330,2012-12-20 21:53:00
4:25 PM,19.4,12.2,74,29.95,10.0,NW,11.5,25.3,N/A,,Mostly Cloudy,320,2012-12-20 22:25:00
4:53 PM,19.0,12.9,77,30.04,10.0,NW,20.7,27.6,N/A,,Overcast,320,2012-12-20 22:53:00
5:27 PM,19.4,12.2,74,29.97,10.0,NNW,15.0,21.9,N/A,,Overcast,330,2012-12-20 23:27:00
5:53 PM,18.0,12.0,78,30.05,10.0,NNW,16.1,28.8,N/A,,Overcast,330,2012-12-20 23:53:00
6:53 PM,17.1,10.9,77,30.07,10.0,North,15.0,23.0,0.00,,Overcast,350,2012-12-21 00:53:00
7:26 PM,14.0,8.6,79,30.00,10.0,NW,17.3,27.6,N/A,,Mostly Cloudy,320,2012-12-21 01:26:00
7:53 PM,14.0,8.1,77,30.09,10.0,NNW,15.0,23.0,N/A,,Mostly Cloudy,330,2012-12-21 01:53:00
8:25 PM,12.2,6.8,79,30.01,10.0,NNW,13.8,23.0,N/A,,Partly Cloudy,330,2012-12-21 02:25:00
8:53 PM,12.9,7.0,77,30.11,10.0,NNW,12.7,-,N/A,,Scattered Clouds,330,2012-12-21 02:53:00
9:53 PM,10.9,6.1,81,30.13,10.0,NW,13.8,-,N/A,,Clear,320,2012-12-21 03:53:00
10:53 PM,10.0,5.0,80,30.15,10.0,NNW,13.8,-,N/A,,Clear,330,2012-12-21 04:53:00
11:53 PM,10.0,5.0,80,30.17,10.0,NW,11.5,-,N/A,,Clear,320,2012-12-21 05:53:00